CAPE
0 0 0 0 0 0 0 0 0 0 0 0 0 0 0 0 0 0 2 7 52 137 172 235 261 342 285 67 277 586 682 874 918 1090 1495 1739 1795 1974 1878 1779 1660 1526 1411 1279 1123 1112 1281 1291 1326 1195 1228 1222 1154 1298 1466 1761 1911 1954 1866 1978 2060 2167 2006 1970 1821 1708 1104 938 1012 1100 1046 793 1015 918 690 826 475 488 527 1031 1611 2304 2528 2787 3159 3585
0 0 0 0 0 0 0 0 0 0 0 0 0 0 0 0 0 0 2 3 16 38 111 145 137 172 281 274 219 477 607 671 840 1046 1498 1756 1866 1966 2012 1844 1864 1782 1566 1338 1193 1094 1303 1297 1364 1270 1354 1230 1231 1249 1438 1816 1980 1978 1822 2045 2257 2258 2178 1985 1800 1557 1210 999 1052 955 515 95 78 555 686 606 343 139 410 1269 2065 2479 2450 2829 3010 2932
0 0 0 0 0 0 0 0 0 0 0 0 0 0 0 0 0 0 0 0 0 1 57 75 69 53 110 124 116 220 664 682 634 924 1463 1942 1967 1987 2016 1932 1921 1870 1775 1510 1335 1183 1255 1348 1365 1378 1449 1336 1236 1301 1352 1733 1989 2131 1925 2082 2431 2269 2147 2090 1923 1767 1384 1396 1266 653 160 64 0 176 416 84 85 118 231 921 1896 2016 2454 2947 3018 3007
0 0 0 0 0 0 0 0 0 0 0 0 0 0 0 0 0 0 0 0 0 2 19 49 14 11 39 66 84 16 552 888 728 783 1309 1881 2080 1998 1943 1966 1961 1951 1951 1691 1561 1358 1225 1383 1485 1500 1488 1451 1309 1372 1312 1509 1786 2031 2088 2245 2268 2124 2048 2022 1944 1897 1752 1798 1773 1372 798 434 20 301 738 644 512 691 466 627 1539 2067 2583 3027 2944 2880
0 0 0 0 0 0 0 0 0 0 0 0 0 0 0 0 0 0 0 0 0 0 0 2 5 2 6 16 22 60 52 689 763 777 1102 1541 1793 1873 1917 1926 1997 2041 2052 1904 1720 1539 1424 1488 1571 1642 1749 1565 1359 1354 1329 1339 1475 1713 2048 2148 2115 2046 1876 2039 1973 2057 2124 2220 2290 1964 1716 1488 899 1260 1214 1053 798 999 978 507 968 1926 2600 2899 2792 2706
0 0 0 0 0 0 0 0 0 0 0 0 0 0 0 0 0 0 0 0 0 0 0 2 39 30 8 15 30 79 239 524 604 953 1143 1432 1665 1822 1823 1996 2061 2064 2165 2078 1894 1641 1494 1527 1638 1741 1703 1742 1538 1400 1421 1338 1445 1573 1874 2077 2372 2150 2105 1984 2161 2374 2421 2467 2476 2187 2012 1599 1399 1139 1094 1108 475 162 175 66 137 1135 2275 2523 2774 2773
0 0 0 0 0 0 0 0 0 0 0 0 0 0 0 0 0 0 0 0 0 0 1 0 8 28 6 13 13 23 222 589 686 959 1207 1465 1853 2024 2060 2061 2099 2053 2114 2112 1964 1834 1630 1646 1663 1783 1865 1874 1737 1734 1484 1390 1372 1459 1748 2110 2380 2456 2353 2218 2323 2544 2490 2654 2458 2255 1703 1221 1168 1034 932 1061 439 25 15 66 178 741 1863 2627 2651 2772
0 0 0 0 0 0 0 0 0 0 0 0 0 0 0 0 0 0 0 0 0 0 0 0 0 10 3 0 5 0 21 417 806 1047 1263 1341 1903 1854 1971 1920 2156 2064 2096 2184 2153 2020 1820 1768 1687 1832 1938 1819 1809 1768 1721 1601 1414 1505 1792 2053 2405 2434 2473 2283 2425 2530 2264 2356 2630 2413 1807 1278 1193 762 1161 1593 1312 527 326 470 433 841 1986 2806 2876 2630
0 0 0 0 0 0 0 0 0 0 0 0 0 0 0 0 0 0 0 0 0 0 0 0 0 0 0 0 0 2 0 54 699 956 1198 1231 1814 1880 1921 1802 2023 2102 2144 2179 2175 2115 1986 1900 1856 1921 2022 1982 1767 1766 1913 1846 1768 1794 1932 2240 2406 2505 2530 2535 2589 2516 2389 2511 2561 2406 2164 1678 1382 1229 1144 1797 1684 1156 1185 1450 1192 1413 2220 2821 3172 2868
0 0 0 0 0 0 0 0 0 0 0 0 0 0 0 0 0 0 0 0 0 0 0 0 0 0 0 3 0 0 0 35 337 616 930 1151 1500 1823 1818 1808 1858 2080 2130 2123 2136 2169 2204 2133 2016 1977 2043 2024 1839 1809 2045 2091 1979 1997 2197 2385 2488 2508 2524 2528 2577 2623 2637 2390 2202 2310 2181 2000 1906 1680 1505 1644 1984 1805 2206 2048 2025 1728 2350 2653 3109 3070
0 0 0 0 0 0 0 0 0 0 0 0 0 0 0 0 0 0 0 0 0 0 0 0 0 0 0 0 0 0 0 0 60 403 713 1108 1246 1590 1792 1780 1758 1994 2091 2102 2087 2140 2218 2154 2175 2061 2140 2143 1974 1987 2152 2157 2095 2194 2375 2573 2631 2811 2668 2675 2696 2605 2576 2418 2160 2224 2323 2292 2358 2253 1992 2095 2418 2366 2753 2298 2095 2181 2376 2531 2628 2618
0 0 0 0 0 0 0 0 0 0 0 0 0 0 0 0 0 0 0 0 0 0 0 0 0 0 0 0 0 0 0 0 0 106 507 812 1125 1367 1667 1695 1650 1886 2065 2036 2062 2092 2166 2247 2218 2207 2274 2317 2282 2047 2156 2213 2280 2375 2504 2685 2910 2924 2867 2910 2781 2509 2326 2200 2177 2232 2476 2543 2430 2597 2348 2457 2450 2672 2778 2457 2137 2221 2322 2514 2465 2885
0 0 0 0 0 0 0 0 0 0 0 0 0 0 0 0 0 0 0 0 0 0 0 0 0 0 0 0 0 0 0 0 0 0 95 415 815 1269 1524 1728 1651 1716 1960 2073 2115 2171 2199 2241 2246 2241 2362 2435 2382 2312 2269 2220 2299 2418 2634 2874 2999 3108 2970 2912 2853 2561 2234 2129 2134 2228 2389 2614 2715 2717 2624 2676 2532 2731 2664 2509 2126 2493 2721 2858 2809 2879
0 0 0 0 0 0 0 0 0 0 0 0 0 0 0 0 0 0 0 0 0 0 0 0 0 0 0 0 0 0 0 0 0 0 0 139 466 768 1259 1711 1537 1661 1759 2008 2050 2078 2173 2294 2267 2353 2408 2562 2565 2382 2298 2266 2351 2499 2592 2950 3040 3225 3128 3047 2828 2461 2211 1946 2264 2364 2470 2574 2746 2696 2752 2707 2442 2438 2430 2548 2288 2192 2277 2726 2785 2563
0 0 0 0 0 0 0 0 0 0 0 0 0 0 0 0 0 0 0 0 0 0 0 0 0 0 0 0 0 0 0 0 0 0 0 0 6 316 728 1213 1276 1558 1704 1879 2030 1984 2066 2277 2384 2316 2364 2440 2490 2395 2344 2396 2486 2622 2740 3044 3150 3282 3158 3145 2882 2619 2360 2298 2218 2350 2360 2760 2742 2729 2776 2716 2399 2312 2491 2426 2297 2281 1898 2123 2422 2382
0 0 0 0 0 0 0 0 0 0 0 0 0 0 0 0 0 0 0 0 0 0 0 0 0 0 0 0 0 0 0 0 0 0 0 0 0 6 202 601 866 1143 1449 1714 1882 1969 2057 2213 2320 2345 2381 2430 2537 2605 2396 2444 2483 2615 2774 3033 3219 3401 3275 3170 3076 2651 2417 2367 2361 2490 2463 2565 2434 2557 2699 2785 2650 2524 2644 2773 2489 2659 2517 1990 2175 2764
0 0 0 0 0 0 0 0 0 0 0 0 0 0 0 0 0 0 0 0 0 0 0 0 0 0 0 0 0 0 0 0 0 0 0 0 0 0 5 135 584 935 1285 1572 1728 1879 2050 2100 2331 2264 2370 2401 2445 2447 2399 2523 2623 2679 2727 2978 3250 3367 3274 3201 3123 2719 2621 2792 2646 2508 2316 2378 2471 2314 2376 2644 2833 2474 2702 2889 2787 2670 2724 2398 2406 2732
0 0 2 0 0 0 0 0 0 0 0 1 0 0 0 0 0 0 0 0 0 0 0 0 0 0 0 0 0 0 0 0 0 0 0 0 0 0 0 0 256 692 1001 1349 1701 1960 2013 2026 2156 2228 2297 2285 2410 2455 2516 2678 2668 2693 2821 2994 3253 3342 3373 3310 3234 3099 2916 2927 2851 2689 2539 2521 2465 2143 2374 2458 2867 2747 2678 2949 2977 2520 2628 2752 2556 2522
0 0 0 0 0 0 0 0 0 0 0 0 0 0 0 0 0 0 0 0 0 0 0 0 0 0 0 0 0 0 0 0 0 0 0 0 0 0 0 0 74 447 707 1199 1514 1810 1949 1987 2042 2160 2096 2186 2308 2517 2547 2617 2680 2721 2811 2887 3020 3207 3247 3250 3079 3125 3171 3010 2714 2573 2560 2628 2533 2568 2583 2752 2957 2948 2708 2794 2870 2551 2322 2633 2690 2898
0 0 0 2 0 2 0 0 0 0 0 0 0 1 0 0 0 0 0 0 0 0 0 0 0 0 0 0 0 0 0 0 0 0 0 0 0 0 0 3 84 350 593 979 1406 1625 1781 1982 2014 2057 2065 2064 2141 2387 2506 2575 2513 2535 2696 2802 2918 3065 3239 3254 3123 3214 3191 3046 2779 2773 2844 2836 2821 2858 2834 3000 2974 2917 2842 2728 2594 2707 2277 2627 2544 2822
0 0 7 8 2 4 0 0 0 0 0 0 0 0 0 0 0 0 0 0 0 0 0 0 0 0 0 0 0 0 0 0 0 0 0 0 0 0 0 0 14 351 586 871 1379 1606 1742 1839 1817 1924 1987 1950 2068 2306 2333 2322 2360 2377 2554 2838 2801 2944 2996 3149 3030 3088 3343 3151 2914 2905 2995 2891 2931 2743 2943 3129 3025 2934 2888 2806 2704 2796 2565 2637 2652 2711
0 0 0 17 8 2 0 0 0 0 8 13 0 0 0 0 0 0 0 0 0 0 0 0 0 0 0 0 0 0 0 0 0 0 0 0 0 0 0 0 3 295 750 1074 1264 1444 1582 1838 1818 1846 1900 1875 1924 2074 2144 2084 2265 2354 2527 2568 2778 2746 2845 2959 2952 3168 3355 3150 3023 3132 3252 3281 3192 3129 3104 3217 3029 3035 2938 2990 2997 2883 2788 2630 2906 2774
0 2 12 20 20 16 11 0 0 0 0 2 2 2 1 4 1 0 0 0 0 0 0 0 0 0 0 0 0 0 0 0 0 0 0 0 0 0 0 0 0 372 977 1010 1109 1092 1390 1723 1789 1733 1926 1885 1782 1958 2026 2028 2120 2272 2461 2471 2582 2482 2670 2698 2898 2951 3346 3372 3368 3508 3533 3380 3278 3162 3352 3176 2990 2880 2901 3135 3137 2886 2922 2611 2786 3008
0 0 0 0 0 0 2 0 0 0 0 0 1 1 0 1 2 2 0 0 0 0 0 0 0 0 0 0 0 0 0 0 0 0 0 0 0 0 0 0 6 435 1170 989 981 1041 1351 1687 1863 1846 1918 1883 1828 1979 2076 2088 2137 2308 2347 2355 2392 2374 2497 2567 2721 2904 3298 3374 3454 3510 3510 3592 3523 3411 3279 2988 2930 2889 2799 2838 3000 2972 2921 2828 2599 2897
0 0 0 17 20 36 35 11 3 1 0 0 2 1 2 0 0 0 0 0 0 0 0 0 0 0 0 0 0 0 0 0 0 0 0 0 0 0 0 0 87 524 1375 1310 1087 1157 1317 1518 1799 2005 1989 2151 1975 1772 1992 2004 2126 2204 2151 2170 2219 2288 2345 2524 2653 2839 3229 3393 3255 3287 3476 3460 3345 3332 3274 3041 2862 2887 2835 2655 2773 2999 2993 2882 2529 2627
0 0 7 14 41 54 22 36 30 14 0 3 4 0 0 2 0 0 0 0 0 0 9 8 0 0 0 0 0 0 0 0 0 0 0 0 0 0 0 0 224 915 1636 1897 1544 1415 1330 1631 2019 2196 2253 2240 1939 1780 2046 2179 2034 2016 2038 2107 2159 2276 2395 2510 2569 2754 3102 3218 3169 3278 3386 3482 3266 3212 3266 3102 2905 2825 2779 2633 2706 2909 3003 2888 2698 2524
0 0 0 0 0 6 12 3 0 0 0 2 0 0 0 0 0 0 0 7 2 0 0 0 6 16 8 0 0 0 0 0 0 0 0 0 0 0 0 0 2 87 556 831 1231 1329 1609 1877 2176 2248 2390 2171 1870 1787 1906 1994 2003 1928 2102 2188 2109 2233 2302 2488 2598 2862 3040 3205 3052 3296 3316 3328 3213 3204 3139 3278 2968 2838 2812 2679 2589 2708 2916 2921 2764 2501
0 0 0 0 0 0 0 0 3 0 0 0 0 0 0 0 0 0 0 7 34 25 1 16 4 0 0 0 0 0 2 60 14 4 0 0 0 0 0 128 22 0 128 514 966 1271 1666 1912 2277 2470 2496 2238 1944 1800 1832 1918 1888 1935 2099 2236 2190 2228 2361 2517 2630 2938 3152 3196 3070 3241 3224 3249 3188 3256 3197 3262 3329 3081 2902 2784 2631 2727 2870 3032 2808 2518
2 0 0 0 0 0 0 0 15 2 0 0 0 0 0 0 0 0 0 0 6 8 10 12 46 13 0 0 0 0 218 113 8 62 284 158 128 240 120 21 0 0 72 543 1169 1566 1789 1867 2634 2793 2729 2438 1983 1822 1870 1954 1952 2041 2123 2182 2220 2130 2333 2549 2736 2876 3070 3230 3265 3325 3465 3576 3374 3319 3369 3384 3462 3238 3036 2968 2902 2902 3008 3140 2954 2594
0 0 0 0 0 0 0 0 14 13 5 0 0 0 0 0 0 0 0 0 0 1 15 12 10 5 0 0 38 140 202 172 59 90 466 741 872 1345 1164 639 44 8 0 46 993 1477 2164 2131 2675 3035 2986 2764 2096 1960 1820 1916 2028 1971 2060 2210 2162 2236 2321 2620 2781 3003 3216 3282 3232 3312 3506 3668 3504 3469 3484 3392 3448 3491 3288 3126 3121 2971 3018 3142 3149 2955
0 13 6 1 0 0 0 0 4 18 14 6 0 0 0 0 0 0 0 0 0 0 0 0 6 0 0 288 189 179 133 147 137 205 852 1322 1222 1292 1332 1143 937 1382 1386 1257 40 835 1562 2149 2368 3065 3158 2928 2281 1959 1848 2098 2102 2057 2071 2258 2265 2380 2436 2651 2973 3182 3216 3251 3224 3440 3673 3765 3654 3658 3689 3620 3614 3641 3481 3336 3231 3170 3315 3343 3294 3247
2 3 0 0 0 0 0 0 0 2 18 11 6 2 0 0 0 0 0 0 0 29 28 15 4 0 30 83 104 49 164 261 306 794 1218 1397 1433 1518 1699 1670 1727 2285 2384 2599 2732 1772 363 1344 1940 2736 3002 2767 2298 2045 1952 2215 2242 2218 2056 2311 2274 2229 2312 2620 2996 3220 3326 3270 3349 3727 3885 3799 3819 3752 3809 3791 3753 3806 3660 3434 3432 3436 3499 3444 3412 3496
4 9 2 0 0 0 0 0 0 0 1 7 9 7 0 0 0 0 6 220 34 12 7 12 11 144 16 4 20 156 209 361 650 1225 1657 1549 1878 1741 1706 1865 2082 2216 2435 2794 2934 3184 2739 1011 523 2012 2443 2375 2204 2009 1984 2144 2128 2311 2289 2471 2444 2314 2327 2579 3010 3324 3400 3298 3513 3979 4084 3854 3874 3829 3918 3949 3906 3925 3852 3671 3653 3553 3549 3439 3458 3486
0 4 5 2 0 0 0 1 3 0 1 0 95 8 9 2 0 0 168 173 114 46 29 55 43 1 0 0 39 98 202 420 600 710 1123 1834 1928 1994 1916 1971 2127 2306 2553 2808 2903 3116 3288 2540 1076 541 1959 2338 2412 1970 1976 2214 2127 2320 2299 2469 2480 2428 2568 2862 3074 3377 3347 3441 3686 4023 4082 3948 3930 3925 3936 4060 3955 4005 3986 3819 3783 3532 3425 3405 3556 3644
0 0 2 9 0 1 0 2 1 11 3 248 43 26 0 7 11 92 276 100 73 55 36 25 27 0 0 0 0 23 84 241 417 656 1020 1371 1833 1804 1804 1846 2089 2370 2595 2724 2863 3042 3496 3159 1599 487 756 1933 1957 2041 2025 2093 2193 2525 2521 2582 2582 2551 2717 2914 3113 3346 3439 3536 3829 3975 4029 4081 3962 3999 4082 4054 3999 4018 3982 3869 3835 3649 3391 3313 3427 3622
0 0 0 3 1 0 0 4 4 4 112 93 60 30 190 216 199 218 191 61 62 32 17 17 2 0 2 0 0 13 92 270 490 764 1181 1414 1345 1362 1358 1625 1869 2094 2336 2552 2749 2998 3362 3355 2212 739 265 1374 1904 1713 1873 2112 2198 2368 2471 2535 2667 2638 2595 2981 3239 3341 3460 3520 3776 3906 3948 4084 3999 3952 4021 4022 3966 3938 3890 3907 3901 3838 3498 3252 3304 3483
0 0 0 0 0 0 0 5 1 0 0 2 46 61 75 227 318 184 118 62 40 17 8 5 2 2 0 0 0 10 192 455 868 1339 1525 1110 1061 1163 1124 953 1543 2049 2196 2413 2676 3014 3337 3322 2638 1244 664 1100 1805 1600 1758 2003 2130 2324 2299 2470 2621 2593 2752 3041 3096 3399 3603 3448 3656 3784 3932 3945 3891 3919 3896 3877 3846 3813 3792 3823 3886 3804 3635 3436 3273 3278
0 0 0 0 0 0 2 10 2 0 1 44 18 13 32 113 83 102 166 61 11 0 0 1 0 0 0 0 0 527 828 1298 1274 1221 1162 1175 1141 1194 1245 1232 1405 2039 2235 2506 2798 3040 2891 2213 1563 1206 954 1382 1887 1646 1656 1905 2142 2507 2734 2718 2658 2613 2803 2870 3006 3362 3697 3427 3548 3857 3932 3922 3840 3902 3922 3854 3790 3766 3646 3679 3743 3759 3674 3450 3237 2988
36 0 0 0 1 1 2 1 2 2 47 102 62 26 28 32 78 178 216 180 0 0 0 0 5 14 92 24 0 8 911 1000 792 734 687 892 1034 1140 1078 1106 1416 2097 2353 2574 2750 2920 2163 1510 1521 1346 1206 1781 2031 1706 1842 2028 2282 2763 2969 2811 2517 2583 2808 2866 3041 3291 3578 3611 3687 3826 3825 3770 3834 3804 3782 3806 3786 3695 3696 3708 3739 3700 3613 3445 3266 2997
114 21 0 0 3 3 4 4 1 0 0 11 46 7 34 18 39 211 178 34 0 0 1 10 3 32 156 165 212 411 506 458 290 510 696 777 956 1099 1057 1163 1398 1994 2280 2430 2691 2958 2649 1847 1802 1526 1638 2027 1999 1667 1983 2137 2634 3019 2889 2432 2372 2542 2769 2964 3158 3283 3463 3594 3720 3821 3760 3670 3837 3839 3754 3795 3887 3691 3746 3662 3546 3639 3650 3547 3393 3283
18 33 0 0 0 2 1 3 5 2 2 56 57 22 33 33 91 11 33 16 2 0 2 0 4 8 240 214 57 536 452 0 0 248 636 803 981 1202 1438 1536 1450 1675 2076 2271 2580 2836 2438 2261 2085 1992 1785 1893 1994 1888 2242 2156 2678 2876 2962 2664 2548 2630 2747 3015 3169 3441 3690 3714 3546 3536 3675 3635 3794 3724 3661 3742 3847 3698 3644 3608 3586 3496 3646 3633 3438 3472
1 13 0 0 0 0 0 0 0 5 129 5 110 96 54 35 28 98 41 8 8 1 0 14 13 21 140 185 270 254 273 151 282 576 814 1031 1138 1340 1425 1480 1502 1454 1830 2228 2333 2632 2957 1932 2073 1947 1690 2193 2288 2155 2127 2568 3284 3446 3148 2762 2745 2868 2751 3089 3395 3602 3637 3816 3555 3596 3632 3609 3768 3782 3582 3698 3905 3919 3790 3802 3733 3665 3750 3561 3652 3699
58 24 7 0 0 0 0 3 4 10 46 0 1 87 12 18 33 7 5 2 2 4 20 4 2 30 70 224 293 286 369 442 596 807 1082 1339 1496 1550 1594 1641 1604 1462 1496 1877 2352 2358 2604 2602 2031 1864 1962 2204 2311 2203 2649 3181 3620 3499 3242 2991 3099 3109 3190 3291 3472 3778 3991 4030 3784 3628 3711 3770 3826 3778 3655 3680 3890 4078 4046 3988 3867 3806 3874 3950 3965 4032
6 0 88 57 17 0 4 4 6 2 3 1 1 15 5 6 6 15 3 12 63 89 0 0 0 15 150 250 425 454 491 584 744 1017 1260 1506 1514 1676 1771 1822 1727 1633 1651 1682 2162 2589 2410 3115 3625 2254 2078 2639 2582 2652 2901 3376 3906 3812 3583 3485 3600 3337 3268 3611 3903 4188 4230 4148 3865 3885 3853 3830 3789 3960 3794 3790 3932 4113 4280 4197 4101 4073 4167 4262 4098 3987
4 2 1 9 35 13 0 0 254 0 5 0 2 5 9 5 5 6 4 25 80 122 92 10 3 53 62 218 409 453 416 682 826 1114 1299 1685 1675 1816 1806 1734 1734 1743 1696 1745 1870 2232 2814 2588 3272 3584 3014 2607 2518 2750 3353 3716 3993 3968 3793 3657 3712 3449 3606 4055 4374 4474 4412 4219 4093 4134 3961 3975 4027 4083 3927 4000 4117 4331 4416 4485 4356 4344 4328 4395 4168 3833
1 9 35 36 2 3 0 2 5 13 2 0 2 5 0 2 6 4 4 3 8 5 66 73 106 42 50 109 451 447 438 663 883 1113 1422 1539 1609 1599 1640 1753 1957 2042 2075 2038 1936 2094 2493 2889 2856 3403 3751 4117 3711 3606 3776 3998 4119 4437 4090 4296 4255 3995 4377 4634 4820 4684 4572 4399 4255 4163 3978 4134 4205 4359 4220 4253 4312 4542 4652 4668 4557 4461 4478 4322 4000 3969
10 6 1 6 106 0 53 230 21 6 1 0 6 7 2 0 4 6 4 12 21 1 49 0 0 0 0 174 206 469 477 658 886 1050 1396 1574 1640 1770 1823 1990 2064 2208 2269 2135 1937 2030 2140 2639 3071 3188 3329 3688 3851 3908 3699 3837 3909 4304 4270 4587 4627 4554 4997 4926 4891 4682 4561 4501 4307 4412 4177 4214 4133 4418 4498 4448 4449 4598 4691 4646 4699 4651 4736 4530 4240 4188
25 2 20 66 66 54 46 36 3 1 0 0 3 6 8 3 2 1 1 0 3 16 20 6 0 55 23 89 169 376 411 529 790 1067 1231 1532 1708 1868 1964 1972 2136 2230 2352 2284 2400 2134 2101 2217 2586 3046 3325 3201 3285 3788 4090 4306 4324 4409 4664 4831 4378 4144 4586 4680 4764 4646 4588 4547 4360 4434 4483 4515 4292 4456 4673 4621 4456 4450 4588 4569 4584 4754 4788 4775 4582 4462
2 10 6 34 24 2 5 2 2 2 0 0 4 6 12 14 4 1 2 1 0 11 18 3 0 5 14 0 58 272 364 581 727 1012 1224 1272 1519 1815 1917 2023 2028 2247 2373 2469 2666 2644 2440 2272 2279 2545 3124 3407 3498 3638 3847 4004 4469 4676 4663 4546 4216 4292 4652 4612 4569 4541 4698 4663 4528 4648 4690 4831 4692 4662 4685 4776 4702 4677 5966 6441 4939 4835 4956 5045 5295 4946
4 4 10 17 6 5 0 92 8 2 0 3 7 8 12 4 0 0 0 0 0 0 1 10 19 4 12 2 0 181 380 399 562 840 1013 1131 1301 1606 1782 1864 1976 2123 2313 2520 2718 2799 2693 2563 2400 2398 2474 2768 3418 3642 3832 3960 3969 4102 4368 4799 4954 5048 5094 4882 4728 4594 4848 4886 4887 5008 4909 4969 4961 4676 4587 4892 5100 5365 4324 4322 4435 4360 4735 5750 4662 4312
0 2 24 23 2 19 13 11 9 9 4 8 6 2 0 0 0 1 0 0 0 0 0 0 3 12 0 1 0 160 230 397 380 662 1061 1270 1230 1278 1642 1706 1856 2088 2231 2508 2763 2808 2832 2780 2574 2462 2517 2731 2813 3039 3386 3628 3973 4404 4676 4972 5230 5175 4830 5079 4670 4278 4462 4686 4688 4795 4974 4745 4948 4912 4797 4899 5462 5485 4434 4183 4247 4384 4437 4538 4795 4516
Wind_Speed
nan nan nan nan nan nan nan nan nan nan nan nan nan nan nan nan nan nan nan nan nan 21 14 11 11 15 15 nan 7 9 10 9 9 9 8 6 3 2 3 4 4 5 4 3 4 3 4 5 8 9 9 8 7 7 5 6 7 7 8 8 7 9 9 8 8 9 9 9 10 11 11 11 11 11 12 12 12 12 11 9 10 8 9 8 9 9
nan nan nan nan nan nan nan nan nan nan nan nan nan nan nan nan nan nan nan nan nan nan 20 15 15 14 14 12 13 12 10 9 9 8 7 5 3 3 3 4 5 5 2 5 3 3 5 6 5 8 10 7 6 7 5 5 6 7 7 8 8 9 9 9 8 9 9 9 9 8 9 nan nan 9 10 10 10 10 9 8 9 9 9 8 9 10
nan nan nan nan nan nan nan nan nan nan nan nan nan nan nan nan nan nan nan nan nan nan nan nan nan nan 15 15 15 14 10 12 10 8 7 5 5 5 3 3 5 5 4 5 4 3 3 4 4 6 8 8 7 7 6 6 6 7 8 9 8 9 8 9 9 9 8 8 8 8 8 nan nan 9 9 nan nan 9 10 7 7 9 9 9 10 10
nan nan nan nan nan nan nan nan nan nan nan nan nan nan nan nan nan nan nan nan nan nan nan nan nan nan nan nan nan nan 13 14 12 9 9 9 7 6 4 3 2 4 4 5 5 3 2 4 5 5 6 7 7 8 8 6 5 8 9 9 8 9 8 8 8 8 7 7 7 8 9 8 nan 9 8 9 9 8 10 9 7 8 9 9 10 10
nan nan nan nan nan nan nan nan nan nan nan nan nan nan nan nan nan nan nan nan nan nan nan nan nan nan nan nan nan nan nan 16 15 12 12 12 11 10 11 8 4 3 4 4 4 2 2 3 4 5 6 7 6 7 7 7 7 11 7 8 8 10 8 8 7 6 6 6 6 7 8 9 9 11 10 9 8 8 8 10 9 8 8 9 11 10
nan nan nan nan nan nan nan nan nan nan nan nan nan nan nan nan nan nan nan nan nan nan nan nan nan nan nan nan nan nan 20 17 16 14 14 15 15 15 11 7 6 4 5 6 5 4 3 5 8 7 6 6 7 7 8 8 8 10 10 9 9 11 10 8 5 4 5 6 6 6 8 9 10 11 11 10 9 8 8 nan 8 7 8 8 10 10
nan nan nan nan nan nan nan nan nan nan nan nan nan nan nan nan nan nan nan nan nan nan nan nan nan nan nan nan nan nan 19 16 16 15 17 18 19 16 12 11 9 6 6 5 5 6 5 6 7 7 6 6 7 8 9 9 10 9 11 10 10 11 11 9 6 3 6 7 8 7 7 9 9 10 10 10 10 nan nan nan 8 7 6 6 8 9
nan nan nan nan nan nan nan nan nan nan nan nan nan nan nan nan nan nan nan nan nan nan nan nan nan nan nan nan nan nan nan 18 17 17 19 21 19 15 13 12 10 8 6 6 5 5 4 4 4 4 5 7 8 9 9 9 10 9 10 10 10 11 10 8 7 5 7 9 9 9 9 10 9 8 7 6 7 8 8 6 6 6 6 5 6 8
nan nan nan nan nan nan nan nan nan nan nan nan nan nan nan nan nan nan nan nan nan nan nan nan nan nan nan nan nan nan nan nan 18 17 19 19 18 15 13 12 11 9 7 6 6 5 3 3 4 7 8 9 10 10 9 9 11 11 12 12 11 10 9 8 6 7 7 10 11 11 11 10 9 6 6 5 5 6 5 5 4 5 5 5 5 7
nan nan nan nan nan nan nan nan nan nan nan nan nan nan nan nan nan nan nan nan nan nan nan nan nan nan nan nan nan nan nan nan 18 17 17 17 17 16 14 12 11 10 8 6 7 7 5 4 6 9 12 12 11 12 12 12 12 12 13 12 9 8 10 9 7 8 7 9 12 11 10 7 7 6 6 6 5 5 5 4 4 4 5 6 6 7
nan nan nan nan nan nan nan nan nan nan nan nan nan nan nan nan nan nan nan nan nan nan nan nan nan nan nan nan nan nan nan nan nan 21 20 19 18 16 15 15 15 13 9 8 8 8 8 8 8 9 8 9 10 12 12 12 11 11 11 11 9 9 11 9 8 7 7 9 10 11 9 5 4 4 5 6 6 6 5 5 5 4 4 6 7 8
nan nan nan nan nan nan nan nan nan nan nan nan nan nan nan nan nan nan nan nan nan nan nan nan nan nan nan nan nan nan nan nan nan 19 21 19 19 18 18 17 15 12 10 9 9 10 12 11 7 6 6 7 8 9 10 10 11 11 11 12 10 9 9 9 9 8 8 9 9 9 7 5 5 5 7 6 6 6 5 5 5 5 6 6 7 8
nan nan nan nan nan nan nan nan nan nan nan nan nan nan nan nan nan nan nan nan nan nan nan nan nan nan nan nan nan nan nan nan nan nan nan 24 22 21 19 17 17 15 13 12 10 12 13 10 7 5 4 5 6 7 7 8 9 10 10 10 10 9 8 9 10 9 8 8 8 7 6 6 7 7 8 8 7 7 7 6 5 5 6 7 7 7
nan nan nan nan nan nan nan nan nan nan nan nan nan nan nan nan nan nan nan nan nan nan nan nan nan nan nan nan nan nan nan nan nan nan nan 27 26 24 21 20 19 18 15 13 12 12 11 9 7 7 5 4 5 5 8 8 9 11 11 11 10 10 10 11 10 11 10 7 8 7 7 7 9 10 10 10 9 8 8 8 6 6 7 7 6 7
nan nan nan nan nan nan nan nan nan nan nan nan nan nan nan nan nan nan nan nan nan nan nan nan nan nan nan nan nan nan nan nan nan nan nan nan nan 28 25 24 21 19 17 15 13 10 9 9 10 9 7 5 5 5 7 9 9 11 11 11 10 11 10 10 10 12 11 11 8 7 7 9 12 12 12 11 11 9 8 8 7 7 8 8 8 10
nan nan nan nan nan nan nan nan nan nan nan nan nan nan nan nan nan nan nan nan nan nan nan nan nan nan nan nan nan nan nan nan nan nan nan nan nan nan 28 26 23 20 18 15 12 9 7 9 12 11 10 9 7 6 7 8 10 10 10 11 10 11 11 11 11 12 12 12 13 8 7 9 11 13 13 12 11 10 9 8 8 7 8 9 10 11
nan nan nan nan nan nan nan nan nan nan nan nan nan nan nan nan nan nan nan nan nan nan nan nan nan nan nan nan nan nan nan nan nan nan nan nan nan nan nan 27 23 21 19 16 12 10 7 9 11 11 12 12 11 8 6 7 8 9 11 12 11 12 13 13 13 13 14 15 14 11 8 9 11 10 9 11 9 8 9 8 8 8 7 9 12 12
nan nan nan nan nan nan nan nan nan nan nan nan nan nan nan nan nan nan nan nan nan nan nan nan nan nan nan nan nan nan nan nan nan nan nan nan nan nan nan nan 24 22 19 15 12 12 10 9 10 10 10 12 13 11 9 7 8 11 12 13 13 12 12 13 15 15 16 16 15 13 10 10 11 11 11 12 11 10 10 9 9 8 9 11 12 13
nan nan nan nan nan nan nan nan nan nan nan nan nan nan nan nan nan nan nan nan nan nan nan nan nan nan nan nan nan nan nan nan nan nan nan nan nan nan nan nan nan 20 20 19 16 16 13 10 11 12 10 11 12 12 12 10 10 11 13 13 12 11 12 15 18 18 19 17 18 17 13 10 12 13 13 14 13 12 10 9 9 8 10 12 12 12
nan nan nan nan nan nan nan nan nan nan nan nan nan nan nan nan nan nan nan nan nan nan nan nan nan nan nan nan nan nan nan nan nan nan nan nan nan nan nan nan nan 22 23 21 20 18 14 11 11 12 12 12 12 13 13 13 11 10 11 13 13 14 16 17 17 18 18 17 18 18 16 14 14 14 15 14 13 13 11 10 10 9 10 13 13 12
nan nan nan nan nan nan nan nan nan nan nan nan nan nan nan nan nan nan nan nan nan nan nan nan nan nan nan nan nan nan nan nan nan nan nan nan nan nan nan nan nan 25 24 23 22 19 15 12 10 11 13 12 12 13 14 14 12 10 12 13 13 14 14 14 15 17 19 20 18 18 16 14 14 14 16 14 13 13 13 12 12 12 13 15 14 12
nan nan nan nan nan nan nan nan nan nan nan nan nan nan nan nan nan nan nan nan nan nan nan nan nan nan nan nan nan nan nan nan nan nan nan nan nan nan nan nan nan 27 25 24 22 19 16 14 12 13 16 17 16 15 14 14 13 12 10 11 14 15 14 15 16 17 19 20 20 17 17 16 17 17 18 15 14 14 14 14 14 13 14 15 14 13
nan nan nan nan nan nan nan nan nan nan nan nan nan nan nan nan nan nan nan nan nan nan nan nan nan nan nan nan nan nan nan nan nan nan nan nan nan nan nan nan nan 25 25 24 22 20 19 17 16 17 18 18 16 15 15 16 14 12 11 12 13 13 13 15 16 18 21 21 20 18 19 19 19 19 17 15 16 14 15 15 15 15 14 15 15 13
nan nan nan nan nan nan nan nan nan nan nan nan nan nan nan nan nan nan nan nan nan nan nan nan nan nan nan nan nan nan nan nan nan nan nan nan nan nan nan nan nan 26 25 25 25 25 24 23 23 23 22 20 19 19 18 17 14 13 13 13 12 11 14 16 18 20 21 20 20 20 21 20 20 18 18 16 17 15 15 17 16 16 15 15 16 14
nan nan nan nan nan nan nan nan nan nan nan nan nan nan nan nan nan nan nan nan nan nan nan nan nan nan nan nan nan nan nan nan nan nan nan nan nan nan nan nan nan 33 33 32 31 29 28 26 25 24 24 23 21 20 20 19 18 17 15 14 12 12 15 18 20 20 21 20 20 21 21 20 20 19 18 17 17 15 16 17 17 17 15 16 15 14
nan nan nan nan nan nan nan nan nan nan nan nan nan nan nan nan nan nan nan nan nan nan nan nan nan nan nan nan nan nan nan nan nan nan nan nan nan nan nan nan 39 42 41 40 36 33 29 27 27 27 27 26 22 21 22 22 21 19 18 16 15 16 17 18 20 20 21 22 22 21 20 20 20 18 17 17 17 16 17 18 18 18 18 16 15 15
nan nan nan nan nan nan nan nan nan nan nan nan nan nan nan nan nan nan nan nan nan nan nan nan nan nan nan nan nan nan nan nan nan nan nan nan nan nan nan nan nan nan 39 37 35 33 33 32 28 26 26 25 22 23 23 23 22 21 21 20 18 18 18 19 20 22 22 22 22 22 20 20 19 19 18 19 19 19 20 19 19 18 18 17 16 15
nan nan nan nan nan nan nan nan nan nan nan nan nan nan nan nan nan nan nan nan nan nan nan nan nan nan nan nan nan nan nan nan nan nan nan nan nan nan nan 50 nan nan 44 42 39 35 32 28 27 27 26 23 23 23 24 24 24 23 22 22 21 21 20 20 20 21 22 23 23 22 20 20 20 19 20 21 22 21 20 21 21 21 20 19 17 16
nan nan nan nan nan nan nan nan nan nan nan nan nan nan nan nan nan nan nan nan nan nan nan nan nan nan nan nan nan nan 48 48 nan nan 56 55 53 55 55 nan nan nan nan 43 39 36 32 30 29 27 26 24 21 22 23 25 26 25 24 23 22 22 21 21 21 22 23 24 23 22 23 24 23 22 21 22 23 21 21 22 23 23 22 21 19 19
nan nan nan nan nan nan nan nan nan nan nan nan nan nan nan nan nan nan nan nan nan nan nan nan nan nan nan nan nan 46 45 45 nan nan 53 56 59 59 60 59 nan nan nan nan 42 37 34 30 28 26 25 24 20 20 21 24 25 25 24 23 23 24 24 24 23 23 23 23 22 24 25 26 25 24 23 22 22 22 22 23 24 24 23 21 21 21
nan nan nan nan nan nan nan nan nan nan nan nan nan nan nan nan nan nan nan nan nan nan nan nan nan nan nan 59 52 49 46 45 46 50 55 58 61 63 64 64 64 64 63 60 nan 44 39 34 30 28 27 23 19 17 19 22 24 25 24 24 24 24 25 26 25 24 23 23 24 26 27 28 26 25 23 22 23 24 23 22 24 25 25 24 23 23
nan nan nan nan nan nan nan nan nan nan nan nan nan nan nan nan nan nan nan nan nan nan nan nan nan nan nan nan 53 nan 49 48 47 50 52 58 63 64 65 66 67 66 65 63 60 56 49 40 34 30 26 21 18 17 18 22 25 26 24 24 23 24 25 25 25 25 25 25 26 27 28 28 28 26 25 24 23 24 24 24 24 24 25 25 24 25
nan nan nan nan nan nan nan nan nan nan nan nan nan nan nan nan nan nan nan 68 nan nan nan nan nan 59 nan nan nan 51 50 48 48 49 52 57 62 64 65 66 67 66 65 64 62 56 50 45 39 31 26 23 21 18 15 18 23 25 25 24 24 26 25 25 25 26 27 27 27 27 28 29 28 26 26 25 25 26 26 25 23 23 23 23 25 26
nan nan nan nan nan nan nan nan nan nan nan nan nan nan nan nan nan nan 57 63 62 nan nan nan nan nan nan nan nan nan 49 45 44 45 46 50 57 63 66 67 67 67 65 63 61 58 55 50 43 36 27 25 21 16 15 18 20 25 29 29 29 27 26 26 26 27 28 28 28 28 29 28 27 27 26 27 27 27 26 24 22 21 22 24 25 25
nan nan nan nan nan nan nan nan nan nan nan 59 nan nan nan nan nan nan 67 61 nan nan nan nan nan nan nan nan nan nan nan 43 39 38 41 45 54 58 63 65 66 66 64 62 60 59 57 53 44 37 32 27 23 22 24 23 23 30 33 31 29 28 28 27 27 27 28 29 28 28 28 28 27 27 28 28 27 26 24 23 22 22 23 24 23 23
nan nan nan nan nan nan nan nan nan nan 53 nan nan nan 64 65 62 68 66 nan nan nan nan nan nan nan nan nan nan nan nan 43 37 34 37 49 57 57 59 61 64 64 63 62 61 58 54 49 45 38 34 33 31 29 27 25 24 28 32 32 31 30 29 29 28 28 28 29 28 27 26 27 28 28 28 28 28 26 24 23 22 22 23 23 23 24
nan nan nan nan nan nan nan nan nan nan nan nan nan nan nan 58 62 57 58 nan nan nan nan nan nan nan nan nan nan nan 47 43 36 34 53 59 57 57 56 57 57 59 60 61 59 57 52 47 42 39 38 37 36 33 30 30 28 29 33 34 32 31 29 29 28 28 28 28 28 26 26 26 27 28 28 27 27 25 23 23 23 23 25 23 22 23
nan nan nan nan nan nan nan nan nan nan nan nan nan nan nan 66 nan 68 63 nan nan nan nan nan nan nan nan nan nan 55 47 39 34 37 57 61 58 55 56 54 53 54 56 58 58 54 48 43 41 39 39 37 36 35 36 34 31 31 33 35 34 31 29 27 27 27 28 29 27 26 26 26 26 27 28 27 25 24 24 24 24 24 24 21 21 21
nan nan nan nan nan nan nan nan nan nan nan 52 nan nan nan nan nan 64 59 57 nan nan nan nan nan nan nan nan nan nan 46 37 41 50 56 56 55 54 52 51 49 51 53 53 51 50 48 44 42 41 40 41 39 39 40 38 34 33 34 36 33 30 28 26 26 26 28 29 29 27 26 26 26 26 27 26 24 24 24 23 24 24 23 21 21 20
16 nan nan nan nan nan nan nan nan nan nan nan nan nan nan nan nan 58 54 nan nan nan nan nan nan nan 67 66 63 59 58 50 52 51 53 52 50 48 46 47 48 47 47 47 46 46 44 40 38 37 38 38 39 41 42 42 39 35 36 35 33 30 27 25 24 26 29 31 29 27 26 26 26 26 26 25 25 25 24 24 24 23 22 21 21 21
nan nan nan nan nan nan nan nan nan nan nan nan nan nan nan nan nan nan nan nan nan nan nan nan nan nan 67 66 nan 59 56 nan nan 50 52 51 50 49 49 48 46 44 44 45 44 42 37 35 34 32 33 37 39 40 42 42 41 39 39 38 32 26 24 25 27 29 31 30 28 26 25 25 25 24 24 25 25 25 24 24 22 22 22 21 21 20
nan nan nan nan nan nan nan nan nan nan 42 nan 54 nan nan nan nan nan nan nan nan nan nan nan nan nan 70 68 64 60 56 56 55 53 53 51 49 48 49 48 47 46 43 43 40 38 36 33 30 28 28 32 34 36 38 41 41 42 43 37 28 23 27 29 29 31 31 30 27 25 24 24 25 25 25 26 26 25 23 23 22 22 21 21 21 19
nan nan nan nan nan nan nan nan nan nan nan nan nan nan nan nan nan nan nan nan nan nan nan nan nan nan nan 69 66 61 59 60 60 59 56 52 50 50 51 50 48 46 45 45 44 40 38 34 28 25 25 28 28 30 33 35 39 42 41 31 26 29 32 31 31 33 32 29 26 24 24 24 25 25 25 25 24 23 22 23 21 21 21 20 20 18
nan nan nan nan nan nan nan nan nan nan nan nan nan nan nan nan nan nan nan nan nan nan nan nan nan nan 66 68 66 64 62 62 62 63 59 54 52 51 53 53 51 49 49 49 48 45 37 34 30 25 23 26 26 27 30 33 38 38 32 27 32 34 33 32 33 34 31 29 26 24 24 24 24 24 24 23 22 21 21 21 21 20 20 19 17 17
nan nan nan nan nan nan nan nan 43 nan nan nan nan nan nan nan nan nan nan nan nan 62 nan nan nan nan nan 65 65 63 61 63 65 65 60 57 56 57 56 55 51 51 52 52 51 49 41 31 27 28 28 25 25 29 31 32 34 33 30 32 35 35 33 32 34 33 30 28 26 24 24 24 24 23 22 21 20 20 20 20 20 19 18 17 16 15
nan nan nan nan nan nan nan nan nan nan nan nan nan nan nan nan nan nan nan nan nan nan nan nan 62 nan nan 64 64 63 62 63 66 66 64 60 59 60 57 56 57 60 59 56 55 50 44 33 26 26 27 30 31 32 32 33 33 34 34 37 37 35 34 33 32 31 29 28 26 24 23 22 22 21 20 21 21 21 21 20 19 19 19 18 17 17
nan nan nan nan 19 nan nan 38 nan nan nan nan nan nan nan nan nan nan nan nan nan nan nan nan nan nan nan 61 63 63 63 65 66 67 64 61 63 62 59 60 61 62 59 59 55 52 46 43 35 31 28 28 30 30 33 34 36 36 36 37 35 34 34 33 31 31 29 27 25 24 22 21 22 23 23 22 23 22 22 22 22 22 21 20 20 20
nan nan nan nan nan nan nan nan nan nan nan nan nan nan nan nan nan nan nan nan nan nan nan nan nan nan nan nan 61 64 64 64 65 67 65 62 64 63 62 61 63 65 63 61 58 56 52 49 45 40 36 32 32 33 32 34 34 34 34 34 33 32 33 32 31 29 28 26 26 26 25 25 26 26 26 25 24 24 24 24 24 23 23 22 23 22
nan nan nan nan nan nan nan nan nan nan nan nan nan nan nan nan nan nan nan nan nan nan nan nan nan nan nan nan nan 61 62 63 65 67 66 63 64 65 64 65 64 64 62 64 64 62 59 55 51 46 43 41 39 38 38 38 37 34 31 32 32 32 32 32 31 31 29 30 31 31 31 30 30 28 29 29 28 29 36 33 28 26 27 27 26 26
nan nan nan nan nan nan nan nan nan nan nan nan nan nan nan nan nan nan nan nan nan nan nan nan nan nan nan nan nan 55 59 61 64 67 68 67 68 70 67 68 68 68 67 64 61 62 61 58 54 52 48 45 45 46 45 42 38 35 33 32 31 30 31 33 34 33 33 33 34 35 35 34 34 32 31 32 31 37 44 49 53 50 40 36 47 49
nan nan nan nan nan nan nan nan nan nan nan nan nan nan nan nan nan nan nan nan nan nan nan nan nan nan nan nan nan 50 55 59 63 66 67 67 68 69 70 70 71 71 69 68 66 66 64 60 56 52 51 48 47 47 47 45 43 42 40 36 30 27 28 33 35 35 34 35 36 38 41 39 38 37 36 35 34 35 42 44 51 57 56 52 48 49
Wind_Direction
nan nan nan nan nan nan nan nan nan nan nan nan nan nan nan nan nan nan nan nan nan 205 206 193 196 214 238 nan 199 237 252 253 258 271 267 264 259 317 325 325 336 347 354 299 301 286 257 221 200 188 192 181 168 168 164 148 140 135 139 140 132 136 131 142 144 148 148 149 156 154 147 145 147 145 144 143 139 137 135 141 134 130 119 115 111 113
nan nan nan nan nan nan nan nan nan nan nan nan nan nan nan nan nan nan nan nan nan nan 213 202 195 209 215 210 210 232 240 248 258 272 280 282 270 261 326 331 343 335 281 304 282 289 266 228 226 198 190 182 168 166 169 150 142 139 133 135 140 143 141 146 153 161 156 155 154 150 141 nan nan 145 137 135 133 129 135 142 135 129 123 119 113 114
nan nan nan nan nan nan nan nan nan nan nan nan nan nan nan nan nan nan nan nan nan nan nan nan nan nan 212 212 191 211 228 233 244 248 257 256 251 238 275 343 338 327 332 322 324 324 254 260 249 210 196 185 174 174 169 169 156 143 141 144 145 151 156 160 165 169 164 157 145 135 141 nan nan 140 136 nan nan 134 132 139 133 126 122 117 113 111
nan nan nan nan nan nan nan nan nan nan nan nan nan nan nan nan nan nan nan nan nan nan nan nan nan nan nan nan nan nan 214 225 231 231 234 233 232 242 257 273 308 338 321 330 326 333 270 243 223 210 204 198 190 183 172 171 157 160 153 150 151 163 167 174 176 170 162 145 136 136 143 137 nan 147 152 150 153 147 136 136 139 127 119 114 113 109
nan nan nan nan nan nan nan nan nan nan nan nan nan nan nan nan nan nan nan nan nan nan nan nan nan nan nan nan nan nan nan 215 225 225 229 235 229 230 230 228 236 290 299 293 301 293 251 236 215 207 203 202 195 192 180 170 171 174 159 157 163 174 174 184 189 176 162 148 144 152 158 156 154 166 168 169 162 155 147 134 130 122 112 112 112 113
nan nan nan nan nan nan nan nan nan nan nan nan nan nan nan nan nan nan nan nan nan nan nan nan nan nan nan nan nan nan 219 210 219 227 233 240 246 250 256 263 267 283 295 301 300 290 236 208 208 204 196 189 188 195 193 181 177 180 178 173 180 180 182 184 187 176 159 148 152 164 166 165 166 166 169 162 153 145 133 nan 121 113 108 104 107 112
nan nan nan nan nan nan nan nan nan nan nan nan nan nan nan nan nan nan nan nan nan nan nan nan nan nan nan nan nan nan 219 214 215 222 234 241 247 257 258 256 264 282 287 293 292 290 277 236 213 203 189 179 184 196 202 195 188 185 184 182 188 187 186 185 175 147 155 149 153 156 161 167 171 171 162 155 146 nan nan nan 124 129 116 107 106 107
nan nan nan nan nan nan nan nan nan nan nan nan nan nan nan nan nan nan nan nan nan nan nan nan nan nan nan nan nan nan nan 217 210 217 230 239 247 256 258 262 268 272 284 287 310 320 313 283 245 218 197 185 188 201 202 200 198 197 192 194 195 191 189 182 165 140 149 154 161 169 168 175 177 168 160 146 136 135 142 138 127 138 135 121 113 114
nan nan nan nan nan nan nan nan nan nan nan nan nan nan nan nan nan nan nan nan nan nan nan nan nan nan nan nan nan nan nan nan 208 208 227 237 247 250 258 260 267 274 286 292 283 301 303 278 230 217 210 197 196 199 197 201 206 206 202 202 199 195 191 179 158 155 154 164 174 181 182 182 184 169 154 153 141 142 145 137 142 144 144 144 130 121
nan nan nan nan nan nan nan nan nan nan nan nan nan nan nan nan nan nan nan nan nan nan nan nan nan nan nan nan nan nan nan nan 207 205 221 236 245 248 248 251 257 257 258 268 282 283 279 251 223 213 211 209 197 195 197 203 208 210 209 208 209 200 194 182 166 168 169 171 181 186 186 186 188 176 161 152 160 159 163 144 149 163 156 151 143 132
nan nan nan nan nan nan nan nan nan nan nan nan nan nan nan nan nan nan nan nan nan nan nan nan nan nan nan nan nan nan nan nan nan 208 216 228 236 245 243 247 246 249 251 249 267 279 275 253 236 229 227 222 212 204 207 203 205 212 214 217 214 209 199 191 182 186 185 186 187 188 191 188 177 169 167 171 175 178 174 164 159 164 165 150 142 140
nan nan nan nan nan nan nan nan nan nan nan nan nan nan nan nan nan nan nan nan nan nan nan nan nan nan nan nan nan nan nan nan nan 211 220 223 233 237 238 239 244 247 244 249 256 268 275 268 261 247 241 242 235 221 221 210 208 210 216 222 224 216 208 200 192 195 186 184 195 188 194 177 157 165 178 180 184 186 180 174 163 167 170 159 147 144
nan nan nan nan nan nan nan nan nan nan nan nan nan nan nan nan nan nan nan nan nan nan nan nan nan nan nan nan nan nan nan nan nan nan nan 218 224 234 236 238 235 234 239 241 246 258 272 282 290 294 270 250 249 232 238 231 220 216 219 230 235 227 220 207 204 204 197 185 201 191 188 162 166 169 178 188 186 191 186 180 172 178 173 174 157 142
nan nan nan nan nan nan nan nan nan nan nan nan nan nan nan nan nan nan nan nan nan nan nan nan nan nan nan nan nan nan nan nan nan nan nan 212 216 225 229 232 230 232 237 237 244 256 271 279 282 286 277 261 238 244 239 235 224 221 219 230 235 233 227 216 208 211 206 194 201 197 186 167 174 180 186 188 190 189 187 186 179 173 176 173 144 126
nan nan nan nan nan nan nan nan nan nan nan nan nan nan nan nan nan nan nan nan nan nan nan nan nan nan nan nan nan nan nan nan nan nan nan nan nan 217 222 228 231 234 238 238 243 260 278 283 287 282 281 264 244 246 237 227 224 224 224 233 238 235 230 223 220 218 216 207 204 199 173 177 181 190 194 191 191 192 191 189 185 180 175 161 140 124
nan nan nan nan nan nan nan nan nan nan nan nan nan nan nan nan nan nan nan nan nan nan nan nan nan nan nan nan nan nan nan nan nan nan nan nan nan nan 218 225 229 233 237 239 242 254 272 282 288 286 288 284 266 269 243 239 228 224 224 236 243 243 237 225 222 219 215 213 213 205 178 173 181 193 196 197 198 197 198 197 191 191 178 156 145 134
nan nan nan nan nan nan nan nan nan nan nan nan nan nan nan nan nan nan nan nan nan nan nan nan nan nan nan nan nan nan nan nan nan nan nan nan nan nan nan 219 227 231 235 237 240 246 266 274 289 291 296 293 294 291 284 260 243 232 227 231 238 238 233 228 222 219 219 220 221 212 190 181 190 195 191 198 205 204 205 203 199 197 179 157 148 143
nan nan nan nan nan nan nan nan nan nan nan nan nan nan nan nan nan nan nan nan nan nan nan nan nan nan nan nan nan nan nan nan nan nan nan nan nan nan nan nan 223 229 232 238 240 246 259 274 287 281 284 303 309 312 304 286 254 234 227 231 237 237 239 235 231 227 223 224 223 216 196 186 192 200 198 199 206 206 206 207 202 195 183 162 155 148
nan nan nan nan nan nan nan nan nan nan nan nan nan nan nan nan nan nan nan nan nan nan nan nan nan nan nan nan nan nan nan nan nan nan nan nan nan nan nan nan nan 230 229 230 234 242 252 266 277 283 294 303 305 302 300 289 270 246 235 230 233 238 238 238 229 227 222 224 219 214 206 196 199 205 207 206 205 207 206 206 206 193 180 170 166 161
nan nan nan nan nan nan nan nan nan nan nan nan nan nan nan nan nan nan nan nan nan nan nan nan nan nan nan nan nan nan nan nan nan nan nan nan nan nan nan nan nan 228 230 232 237 247 257 274 289 297 295 297 304 304 296 297 282 279 255 243 233 228 229 233 235 234 231 229 224 220 214 206 208 214 214 213 208 206 206 202 200 194 182 175 177 169
nan nan nan nan nan nan nan nan nan nan nan nan nan nan nan nan nan nan nan nan nan nan nan nan nan nan nan nan nan nan nan nan nan nan nan nan nan nan nan nan nan 227 231 234 239 247 257 266 276 279 277 276 276 273 277 286 295 283 263 255 249 245 241 241 240 240 237 234 230 228 222 216 217 224 223 218 214 207 206 205 199 198 186 186 180 180
nan nan nan nan nan nan nan nan nan nan nan nan nan nan nan nan nan nan nan nan nan nan nan nan nan nan nan nan nan nan nan nan nan nan nan nan nan nan nan nan nan 223 229 233 238 243 249 255 258 259 259 256 260 267 282 285 282 286 287 267 256 248 240 241 239 238 241 240 239 239 233 226 224 227 227 224 219 211 209 207 206 203 195 187 188 184
nan nan nan nan nan nan nan nan nan nan nan nan nan nan nan nan nan nan nan nan nan nan nan nan nan nan nan nan nan nan nan nan nan nan nan nan nan nan nan nan nan 222 227 229 232 234 238 243 246 249 258 264 270 272 280 277 280 287 290 276 260 255 251 246 242 240 239 241 243 247 241 234 230 231 235 232 222 215 213 212 211 209 200 192 194 190
nan nan nan nan nan nan nan nan nan nan nan nan nan nan nan nan nan nan nan nan nan nan nan nan nan nan nan nan nan nan nan nan nan nan nan nan nan nan nan nan nan 218 221 223 223 223 225 230 237 240 249 252 253 254 262 266 272 272 271 272 267 267 258 248 241 240 242 243 246 249 245 242 238 240 239 234 225 220 214 215 215 213 205 200 194 196
nan nan nan nan nan nan nan nan nan nan nan nan nan nan nan nan nan nan nan nan nan nan nan nan nan nan nan nan nan nan nan nan nan nan nan nan nan nan nan nan nan 211 212 211 212 216 222 228 238 244 252 252 255 260 263 271 274 276 279 276 274 266 261 249 243 243 243 245 248 249 248 248 244 243 243 240 232 227 220 219 219 216 212 207 197 199
nan nan nan nan nan nan nan nan nan nan nan nan nan nan nan nan nan nan nan nan nan nan nan nan nan nan nan nan nan nan nan nan nan nan nan nan nan nan nan nan 210 210 208 207 208 213 219 224 231 240 246 246 251 255 259 265 274 279 280 284 275 267 261 256 248 247 246 244 245 247 252 251 249 249 249 246 241 234 226 224 222 222 217 211 205 204
nan nan nan nan nan nan nan nan nan nan nan nan nan nan nan nan nan nan nan nan nan nan nan nan nan nan nan nan nan nan nan nan nan nan nan nan nan nan nan nan nan nan 207 209 213 213 216 221 228 238 248 251 251 250 251 259 267 271 274 281 281 271 268 261 253 250 249 248 248 246 249 252 254 250 249 247 242 236 231 228 229 227 223 218 211 212
nan nan nan nan nan nan nan nan nan nan nan nan nan nan nan nan nan nan nan nan nan nan nan nan nan nan nan nan nan nan nan nan nan nan nan nan nan nan nan 205 nan nan 206 208 211 214 218 223 227 234 248 254 250 250 247 249 256 263 268 277 279 278 272 262 260 256 254 251 248 246 248 248 251 250 248 245 242 238 234 232 232 231 227 223 219 218
nan nan nan nan nan nan nan nan nan nan nan nan nan nan nan nan nan nan nan nan nan nan nan nan nan nan nan nan nan nan 208 202 nan nan 194 195 198 201 202 nan nan nan nan 210 214 217 218 223 225 233 245 251 252 253 253 249 251 255 260 266 274 279 282 275 267 261 257 254 252 250 247 244 243 245 247 245 244 241 237 235 234 235 232 229 223 222
nan nan nan nan nan nan nan nan nan nan nan nan nan nan nan nan nan nan nan nan nan nan nan nan nan nan nan nan nan 195 202 203 nan nan 195 198 201 200 198 199 nan nan nan nan 213 216 219 220 226 234 243 246 246 246 249 249 251 257 265 272 280 284 285 280 277 269 262 260 257 253 250 246 242 243 245 246 246 245 243 239 237 238 237 235 231 229
nan nan nan nan nan nan nan nan nan nan nan nan nan nan nan nan nan nan nan nan nan nan nan nan nan nan nan 213 201 193 197 202 200 199 197 199 201 199 197 197 199 201 203 204 nan 210 214 217 221 228 235 239 240 241 241 244 249 255 264 269 277 281 286 287 284 281 274 265 258 254 252 249 246 243 245 246 244 244 244 243 239 237 238 238 237 235
nan nan nan nan nan nan nan nan nan nan nan nan nan nan nan nan nan nan nan nan nan nan nan nan nan nan nan nan 201 nan 196 196 198 200 200 201 201 200 198 197 197 199 201 203 206 206 208 213 219 225 229 234 242 241 237 236 244 253 261 269 278 285 286 286 287 287 279 268 260 256 256 253 251 248 247 246 246 246 245 244 243 240 241 240 242 240
nan nan nan nan nan nan nan nan nan nan nan nan nan nan nan nan nan nan nan 218 nan nan nan nan nan 218 nan nan nan 199 199 196 197 201 201 199 200 200 199 198 197 198 199 201 204 206 207 206 210 217 219 225 232 236 241 244 247 255 263 267 273 275 281 285 285 281 278 273 267 261 258 256 255 253 250 247 247 245 244 246 246 246 245 244 242 242
nan nan nan nan nan nan nan nan nan nan nan nan nan nan nan nan nan nan 224 221 220 nan nan nan nan nan nan nan nan nan 197 197 197 197 198 200 199 199 198 198 198 198 199 201 203 204 205 207 207 206 208 215 225 233 238 239 243 250 255 255 259 269 271 273 274 275 277 275 272 265 261 260 258 256 253 250 248 246 247 249 249 248 246 242 242 242
nan nan nan nan nan nan nan nan nan nan nan 214 nan nan nan nan nan nan 226 222 nan nan nan nan nan nan nan nan nan nan nan 191 191 194 199 203 201 198 197 197 198 199 199 201 203 204 205 205 206 204 202 206 213 221 227 228 230 241 250 254 259 262 265 269 269 269 272 274 272 269 265 263 262 260 255 252 250 248 248 248 246 247 244 243 244 245
nan nan nan nan nan nan nan nan nan nan 214 nan nan nan 216 220 224 231 227 nan nan nan nan nan nan nan nan nan nan nan nan 193 189 195 203 209 208 202 198 197 197 198 198 200 201 203 204 203 203 204 204 209 213 219 224 228 233 243 252 254 256 257 259 261 264 267 268 270 273 274 270 267 264 261 258 255 252 251 249 248 248 248 246 242 242 243
nan nan nan nan nan nan nan nan nan nan nan nan nan nan nan 218 222 223 224 nan nan nan nan nan nan nan nan nan nan nan 196 196 197 206 219 212 207 202 199 195 195 196 198 199 201 202 204 205 206 205 210 217 222 224 225 227 232 242 251 252 252 256 257 260 263 266 269 272 272 274 274 271 267 263 261 257 254 252 250 249 250 248 247 246 245 246
nan nan nan nan nan nan nan nan nan nan nan nan nan nan nan 216 nan 219 221 nan nan nan nan nan nan nan nan nan nan 195 195 202 202 219 213 207 203 200 196 194 193 195 198 200 202 203 205 210 212 212 214 225 231 235 236 237 234 239 246 249 250 254 257 261 264 265 267 269 271 273 275 274 271 265 261 257 256 253 250 249 248 251 252 252 251 249
nan nan nan nan nan nan nan nan nan nan nan 215 nan nan nan nan nan 218 220 222 nan nan nan nan nan nan nan nan nan nan 200 203 209 213 208 201 198 196 194 192 192 195 198 200 201 201 203 210 217 217 221 228 236 241 245 248 245 240 244 249 252 254 257 260 262 266 269 269 269 271 275 276 273 266 262 258 255 251 251 251 251 251 253 252 251 249
235 nan nan nan nan nan nan nan nan nan nan nan nan nan nan nan nan 216 220 nan nan nan nan nan nan nan 204 204 204 206 206 206 204 203 198 194 192 191 192 191 193 196 195 196 197 198 198 204 214 218 225 231 235 242 247 251 248 242 242 248 250 252 255 259 263 265 263 264 267 269 272 273 274 267 261 257 253 249 247 247 248 252 254 253 250 248
nan nan nan nan nan nan nan nan nan nan nan nan nan nan nan nan nan nan nan nan nan nan nan nan nan nan 206 205 nan 206 205 nan nan 197 195 191 188 188 190 191 193 193 189 189 193 194 198 206 210 214 219 224 231 239 245 247 246 242 241 245 246 251 256 258 257 258 259 263 266 269 274 274 275 270 259 252 249 247 245 246 248 250 251 251 248 247
nan nan nan nan nan nan nan nan nan nan 217 nan 205 nan nan nan nan nan nan nan nan nan nan nan nan nan 206 206 205 203 199 197 197 196 193 190 186 184 186 188 190 191 190 190 193 199 203 208 207 210 218 226 232 236 241 243 242 240 243 246 248 252 252 254 256 258 260 264 268 271 276 277 270 262 252 247 245 245 245 245 247 247 249 246 246 248
nan nan nan nan nan nan nan nan nan nan nan nan nan nan nan nan nan nan nan nan nan nan nan nan nan nan nan 206 204 199 196 196 197 195 193 190 186 182 185 189 190 192 194 195 199 204 206 208 207 209 219 230 233 233 236 239 239 240 244 246 246 248 252 256 257 260 261 264 269 273 277 275 270 258 246 244 245 245 245 245 246 246 245 245 245 248
nan nan nan nan nan nan nan nan nan nan nan nan nan nan nan nan nan nan nan nan nan nan nan nan nan nan 206 206 203 199 195 195 195 195 193 190 184 182 187 192 193 195 197 197 201 203 205 206 204 207 220 226 230 230 228 232 235 237 239 241 242 248 253 255 257 258 260 263 270 273 275 272 264 253 245 244 243 242 243 243 243 242 241 242 239 240
nan nan nan nan nan nan nan nan 220 nan nan nan nan nan nan nan nan nan nan nan nan 217 nan nan nan nan nan 206 203 200 195 193 194 195 194 189 185 185 188 193 194 195 197 198 200 198 200 206 207 211 210 214 227 224 224 226 230 232 232 234 242 250 254 256 255 256 259 263 267 270 270 265 257 252 245 242 241 239 237 238 239 236 234 234 233 230
nan nan nan nan nan nan nan nan nan nan nan nan nan nan nan nan nan nan nan nan nan nan nan nan 207 nan nan 208 205 201 197 193 194 194 194 192 189 187 190 194 194 195 197 199 201 196 197 206 214 215 213 209 210 213 215 218 222 227 229 234 240 246 249 251 251 252 256 260 264 268 266 262 255 249 242 238 233 232 229 230 230 226 228 226 223 221
nan nan nan nan 229 nan nan 208 nan nan nan nan nan nan nan nan nan nan nan nan nan nan nan nan nan nan nan 207 206 201 196 194 195 197 196 194 191 188 192 195 194 195 197 199 200 199 198 201 213 219 219 216 210 207 210 212 215 220 227 230 236 241 243 243 243 247 251 255 260 261 256 252 243 240 237 234 230 229 227 225 224 224 225 228 226 225
nan nan nan nan nan nan nan nan nan nan nan nan nan nan nan nan nan nan nan nan nan nan nan nan nan nan nan nan 204 202 198 195 195 197 196 195 192 191 194 196 194 194 196 200 201 202 204 202 206 218 221 221 216 212 212 213 214 220 222 226 231 235 236 235 236 240 244 250 249 247 246 242 241 240 236 234 231 229 227 224 223 224 227 229 230 230
nan nan nan nan nan nan nan nan nan nan nan nan nan nan nan nan nan nan nan nan nan nan nan nan nan nan nan nan nan 204 201 197 195 195 195 194 192 192 194 195 195 195 197 200 203 206 208 208 208 213 220 219 218 218 217 216 216 217 220 222 227 231 233 231 233 232 237 240 241 242 243 243 242 239 234 234 232 228 222 219 222 225 227 226 227 228
nan nan nan nan nan nan nan nan nan nan nan nan nan nan nan nan nan nan nan nan nan nan nan nan nan nan nan nan nan 203 202 200 196 195 195 195 193 191 193 196 196 196 198 200 204 207 208 208 207 209 215 216 215 218 220 220 219 220 222 224 226 228 230 231 230 230 231 234 238 241 243 241 240 240 236 235 236 235 229 225 225 219 219 225 221 225
nan nan nan nan nan nan nan nan nan nan nan nan nan nan nan nan nan nan nan nan nan nan nan nan nan nan nan nan nan 202 203 201 197 195 195 194 193 193 194 196 198 198 199 200 203 206 209 209 207 206 211 214 214 217 219 220 220 221 224 223 229 231 230 231 228 226 227 231 236 241 241 238 235 236 234 232 236 238 239 233 227 225 225 225 225 229